Change the Weather History Date:

Tuesday, February 5, 2013

  Actual Average Record
Temperature  
Mean Temperature 84 °F -  
Max Temperature 91 °F 88 °F - ()
Min Temperature 77 °F 75 °F - ()
Cooling Degree Days 19    
Growing Degree Days 34 (Base 50)    
Moisture  
Dew Point 78 °F    
Average Humidity 82    
Maximum Humidity 94    
Minimum Humidity 62    
Precipitation  
Precipitation 0.01 in 0.46 in - ()
Sea Level Pressure  
Sea Level Pressure 29.89 in    
Wind  
Wind Speed 3 mph ()    
Max Wind Speed 12 mph    
Max Gust Speed -    
Visibility 7.1 miles    
Events      
T = Trace of Precipitation, MM = Missing Value Source: Averaged Metar Reports

Daily Weather History Graph

Daily Weather History Graph

Search for Another Location

Airport or City:

Trip Planner

Search our weather history database for the weather conditions in past years. The results will help you decide how hot, cold, wet, or windy it might be!

Date:

Astronomy

Feb. 05, 2013 Rise Set
Actual Time 5:46 AM EAT 6:30 PM EAT
Civil Twilight 5:24 AM EAT 6:52 PM EAT
Nautical Twilight 4:57 AM EAT 7:19 PM EAT
Astronomical Twilight 4:30 AM EAT 7:46 PM EAT
Moon 12:38 AM EAT (2/5) 1:55 PM EAT (2/5)
Length of Visible Light 13h 28m
Length of Day
12h 43m
Waning Crescent, 30% of the Moon is Illuminated
Feb 5
Waning Crescent
Feb 10
New
Feb 17
First Quarter
Feb 25
Full
Mar 5
Last Quarter

Hourly Weather History & Observations

Time (EAT) Temp. Heat Index Dew Point Humidity Pressure Visibility Wind Dir Wind Speed Gust Speed Precip Events Conditions
12:00 AM 80.6 °F 87.1 °F 77.0 °F 89% 29.89 in 6.2 mi Calm Calm - N/A   Scattered Clouds
1:00 AM 80.6 °F 87.1 °F 77.0 °F 89% 29.89 in 6.2 mi Calm Calm - N/A   Scattered Clouds
2:00 AM 80.6 °F 87.1 °F 77.0 °F 89% 29.89 in 6.2 mi Calm Calm - N/A   Scattered Clouds
3:00 AM 79 °F - 76 °F 89% 29.86 in 19 mi Calm Calm - -   Scattered Clouds
3:00 AM 78.8 °F - 77.0 °F 94% 29.86 in 6.2 mi Calm Calm - N/A   Partly Cloudy
4:00 AM 78.8 °F - 77.0 °F 94% 29.86 in 6.2 mi Calm Calm - N/A   Partly Cloudy
5:00 AM 78.8 °F - 77.0 °F 94% 29.86 in 6.2 mi Calm Calm - N/A   Partly Cloudy
7:00 AM 78.8 °F - 77.0 °F 94% 29.89 in 3.1 mi Calm Calm - N/A   Mostly Cloudy
8:00 AM 80.6 °F 87.1 °F 77.0 °F 89% 29.92 in 6.2 mi Calm Calm - N/A   Mostly Cloudy
9:00 AM 83 °F - 78 °F 82% 29.92 in 25 mi East 4.6 mph - -   Partly Cloudy
9:00 AM 84.2 °F 96.1 °F 78.8 °F 84% 29.92 in 6.2 mi East 4.6 mph - N/A   Scattered Clouds
10:00 AM 86.0 °F 99.3 °F 78.8 °F 79% 29.92 in 6.2 mi West 4.6 mph - N/A   Scattered Clouds
11:00 AM 87.8 °F 99.7 °F 77.0 °F 70% 29.89 in 6.2 mi SW 4.6 mph - N/A   Scattered Clouds
12:00 PM 89.6 °F 99.8 °F 75.2 °F 62% 29.86 in 6.2 mi SE 4.6 mph - N/A   Scattered Clouds
1:00 PM 91.4 °F 111.0 °F 80.6 °F 71% 29.83 in 6.2 mi NW 9.2 mph - N/A   Partly Cloudy
2:00 PM 89.6 °F 102.2 °F 77.0 °F 66% 29.83 in 6.2 mi NNW 11.5 mph - N/A   Scattered Clouds
3:00 PM 89 °F - 78 °F 63% 30.42 in 25 mi WNW 11.5 mph - -   Scattered Clouds
3:00 PM 89.6 °F 104.7 °F 78.8 °F 70% 29.80 in 6.2 mi WNW 11.5 mph - N/A   Mostly Cloudy
4:00 PM 89.6 °F 104.7 °F 78.8 °F 70% 29.80 in 6.2 mi WNW 11.5 mph - N/A   Mostly Cloudy
5:00 PM 87.8 °F 102.5 °F 78.8 °F 75% 29.80 in 6.2 mi NW 11.5 mph - N/A   Mostly Cloudy
6:00 PM 86.0 °F 99.3 °F 78.8 °F 79% 29.83 in 6.2 mi WNW 9.2 mph - N/A   Mostly Cloudy
7:00 PM 84.2 °F 96.1 °F 78.8 °F 84% 29.89 in 6.2 mi WNW 9.2 mph - N/A   Mostly Cloudy
8:00 PM 84.2 °F 96.1 °F 78.8 °F 84% 29.89 in 6.2 mi WNW 9.2 mph - N/A   Mostly Cloudy
9:00 PM 82 °F - 78 °F 85% 29.91 in 19 mi WNW 6.9 mph - -   Partly Cloudy
9:00 PM 82.4 °F 92.4 °F 78.8 °F 89% 29.89 in 6.2 mi WNW 6.9 mph - N/A   Scattered Clouds
10:00 PM 80.6 °F 87.1 °F 77.0 °F 89% 29.89 in 6.2 mi WNW 6.9 mph - N/A   Scattered Clouds